Le nostre stazioni meteo in Italia

Pubblicità
Il mio iltempo24.it
Rostherne No 2, Gran Bretagna (3351): Temperatura & dewpoint: 16.11.2019 08:00:00 - 22.11.2019 08:00:00 (GMT)Rostherne No 2, Gran Bretagna (3351): velocità del vento & gusts: 16.11.2019 08:00:00 - 22.11.2019 08:00:00 (GMT)Rostherne No 2, Gran Bretagna (3351): direzione del vento: 16.11.2019 08:00:00 - 22.11.2019 08:00:00 (GMT)Rostherne No 2, Gran Bretagna (3351): reduced air pressure: 16.11.2019 08:00:00 - 22.11.2019 08:00:00 (GMT)Rostherne No 2, Gran Bretagna (3351): visibility: 16.11.2019 08:00:00 - 22.11.2019 08:00:00 (GMT)Rostherne No 2, Gran Bretagna (3351): ore di luce: 16.11.2019 08:00:00 - 22.11.2019 08:00:00 (GMT)Rostherne No 2, Gran Bretagna (3351): precipitazioni: 16.11.2019 08:00:00 - 22.11.2019 08:00:00 (GMT)
Data & Tempo tt [°C] td [°C] ff [km/h] ff [kn] fx [km/h] fx [kn] dd ppp [hPa] vv [km] sd [min] rr [mm]
22.11.2019 08:00:00 - - - - - - - - - - -
22.11.2019 07:00:00 5,9 5,0 9 5 - - E 994,5 14 0 0,0
22.11.2019 06:00:00 5,7 5,0 9 5 - - E 994,9 11 0 0,2
22.11.2019 05:00:00 5,5 4,7 11 6 - - E 995,4 8 0 0,4
22.11.2019 04:00:00 5,4 4,5 11 6 - - E 995,8 8 0 1,4
22.11.2019 03:00:00 5,3 4,4 13 7 - - E 996,3 5 0 0,4
22.11.2019 02:00:00 5,4 3,7 13 7 - - E 996,9 8 0 0,0
22.11.2019 01:00:00 5,1 3,4 15 8 - - E 997,4 7 0 0,0
22.11.2019 00:00:00 5,0 3,0 16 9 - - E 998,1 8 - 0,0
21.11.2019 23:00:00 4,9 2,6 15 8 - - ESE 998,6 8 0 0,0
21.11.2019 22:00:00 4,8 2,5 15 8 - - E 999,2 8 0 0,0
21.11.2019 21:00:00 4,9 2,2 16 9 - - ESE 999,9 9 0 0,0
21.11.2019 20:00:00 5,2 1,8 18 10 - - ESE 1000,4 10 0 0,0
21.11.2019 19:00:00 5,4 1,8 18 10 - - ESE 1000,8 11 0 0,0
21.11.2019 18:00:00 5,5 1,8 16 9 - - ESE 1001,3 13 0 0,0
21.11.2019 17:00:00 5,4 1,7 16 9 - - ESE 1001,8 13 0 0,0
21.11.2019 16:00:00 5,6 1,8 15 8 - - ESE 1002,1 14 0 0,0
21.11.2019 15:00:00 5,8 2,2 16 9 - - ESE 1002,2 13 0 0,0
21.11.2019 14:00:00 5,7 2,1 18 10 - - ESE 1002,8 15 0 0,0
21.11.2019 13:00:00 5,5 2,2 13 7 - - ESE 1003,5 11 0 0,0
21.11.2019 12:00:00 5,5 1,9 21 11 - - ESE 1004,2 15 0 0,0
21.11.2019 11:00:00 5,1 1,7 22 12 - - ESE 1004,9 13 0 0,0
21.11.2019 10:00:00 5,0 1,4 26 14 55 30 SE 1005,1 18 0 0,0
21.11.2019 09:00:00 4,8 1,1 18 10 - - SE 1005,6 20 0 0,0
21.11.2019 08:00:00 4,7 0,9 21 11 - - SE 1006,0 27 0 0,0
21.11.2019 07:00:00 4,6 0,8 21 11 - - SE 1006,2 22 0 0,0
21.11.2019 06:00:00 4,2 0,9 9 5 - - SE 1006,4 21 0 0,0
21.11.2019 05:00:00 3,9 1,1 13 7 - - SE 1006,3 15 0 0,0
21.11.2019 04:00:00 4,1 0,9 16 9 - - SE 1006,5 16 0 0,0
21.11.2019 03:00:00 4,4 1,1 21 11 - - SE 1007,0 16 0 0,0
21.11.2019 02:00:00 4,5 1,3 18 10 - - SE 1007,4 19 0 0,0
21.11.2019 01:00:00 4,4 1,3 15 8 - - SE 1007,8 18 0 0,0
21.11.2019 00:00:00 4,2 1,2 13 7 - - SE 1008,1 20 - 0,0
20.11.2019 23:00:00 4,3 0,9 18 10 - - SE 1008,3 24 0 0,0
20.11.2019 22:00:00 4,4 0,9 18 10 - - SE 1008,6 28 0 0,0
20.11.2019 21:00:00 4,9 1,0 18 10 - - SE 1008,8 30 0 0,0
20.11.2019 20:00:00 4,9 0,7 18 10 - - SE 1008,8 40 0 0,0
20.11.2019 19:00:00 5,0 1,0 24 13 - - SE 1009,1 40 0 0,0
20.11.2019 18:00:00 4,7 1,1 18 10 - - SE 1009,1 35 0 0,0
20.11.2019 17:00:00 5,0 1,2 18 10 - - SE 1009,0 30 0 0,0
20.11.2019 16:00:00 5,4 1,9 18 10 - - SE 1009,2 35 0 0,0
20.11.2019 15:00:00 6,3 1,8 22 12 46 25 SSE 1009,4 40 0 0,0
20.11.2019 14:00:00 6,6 2,1 28 15 - - SSE 1009,7 30 0 0,0
20.11.2019 13:00:00 7,2 2,9 26 14 - - SSE 1010,1 35 24 0,0
20.11.2019 12:00:00 7,4 3,6 26 14 - - SSE 1010,5 35 0 0,0
20.11.2019 11:00:00 7,6 4,2 26 14 - - SSE 1010,7 30 6 0,0
20.11.2019 10:00:00 6,5 3,9 26 14 - - SE 1011,0 25 0 0,0
20.11.2019 09:00:00 6,2 4,1 18 10 - - SSE 1011,0 28 0 0,0
20.11.2019 08:00:00 5,9 4,0 21 11 - - SSE 1010,6 21 0 0,0
20.11.2019 07:00:00 6,2 4,1 26 14 - - SSE 1010,5 27 0 0,0
20.11.2019 06:00:00 6,2 3,8 24 13 - - SSE 1010,4 25 0 0,0
20.11.2019 05:00:00 6,8 4,2 22 12 - - SSE 1010,5 30 0 0,0
20.11.2019 04:00:00 6,5 4,3 22 12 - - SSE 1010,8 27 0 0,0
20.11.2019 03:00:00 6,3 3,8 21 11 - - SSE 1011,3 23 0 0,0
20.11.2019 02:00:00 6,3 4,1 18 10 - - SSE 1011,6 25 0 0,0
20.11.2019 01:00:00 6,8 4,3 18 10 - - S 1011,8 28 0 0,0
20.11.2019 00:00:00 6,7 4,5 16 9 - - S 1012,0 30 - 0,0
19.11.2019 23:00:00 5,8 4,0 16 9 - - SSE 1012,4 19 0 0,0
19.11.2019 22:00:00 5,5 4,0 13 7 - - SE 1012,8 16 0 0,0
19.11.2019 21:00:00 5,0 3,7 16 9 - - SSE 1012,9 11 0 0,0
19.11.2019 20:00:00 4,5 3,4 16 9 - - SSE 1012,9 11 0 0,0
19.11.2019 19:00:00 4,7 3,0 15 8 - - SSE 1012,9 14 0 0,0
19.11.2019 18:00:00 5,3 3,3 18 10 - - SSE 1012,9 18 0 0,0
19.11.2019 17:00:00 4,6 2,9 13 7 - - SSE 1012,9 16 0 0,0
19.11.2019 16:00:00 4,1 2,3 11 6 - - SSE 1013,1 20 0 0,0
19.11.2019 15:00:00 5,7 2,9 13 7 - - SSE 1013,4 25 0 0,0
19.11.2019 14:00:00 5,9 3,2 15 8 - - SE 1013,7 21 0 0,0
19.11.2019 13:00:00 4,8 3,2 9 5 - - SSE 1014,7 11 0 0,0
19.11.2019 12:00:00 4,1 3,1 5 3 - - SSE 1014,9 11 0 0,0
19.11.2019 11:00:00 2,4 2,2 2 1 - - S 1015,3 9 0 0,2
19.11.2019 10:00:00 0,9 0,8 5 3 - - SE 1015,5 5 0 0,0
19.11.2019 09:00:00 -1,3 -1,5 5 3 - - ESE 1015,8 5 0 0,0
19.11.2019 08:00:00 -2,6 -2,8 4 2 - - ESE 1015,6 7 0 0,0
19.11.2019 07:00:00 -2,5 -2,7 4 2 - - ESE 1015,7 8 0 0,0
19.11.2019 06:00:00 -2,6 -2,9 4 2 - - ESE 1015,6 8 0 0,0
19.11.2019 05:00:00 -2,9 -3,2 2 1 - - ESE 1015,9 7 0 0,0
19.11.2019 04:00:00 -2,6 -2,8 5 3 - - ESE 1016,2 6 0 0,0
19.11.2019 03:00:00 -2,7 -2,9 4 2 - - ESE 1016,7 6 0 0,0
19.11.2019 02:00:00 -1,8 -1,9 4 2 - - ESE 1016,9 5 0 0,0
19.11.2019 01:00:00 -2,9 -3,2 5 3 - - ESE 1017,0 8 0 0,0
19.11.2019 00:00:00 -2,1 -2,3 5 3 - - SE 1017,4 7 - 0,0
18.11.2019 23:00:00 -2,9 -3,2 4 2 - - ESE 1017,5 3,6 0 0,0
18.11.2019 22:00:00 -3,1 -3,5 4 2 - - E 1017,7 9 0 0,0
18.11.2019 21:00:00 -1,9 -2,2 2 1 - - SSE 1017,9 9 0 0,0
18.11.2019 20:00:00 -1,7 -2,2 4 2 - - SSE 1018,0 9 0 0,0
18.11.2019 19:00:00 -0,1 -0,7 2 1 - - ONO 1018,0 20 0 0,0
18.11.2019 18:00:00 0,8 -0,2 2 1 - - ONO 1017,8 26 0 0,0
18.11.2019 17:00:00 1,6 -0,9 5 3 - - NO 1017,6 35 0 0,0
18.11.2019 16:00:00 4,9 0,0 5 3 - - ONO 1017,4 45 30 0,0
18.11.2019 15:00:00 7,9 2,6 8 4 - - O 1017,5 35 60 0,0
18.11.2019 14:00:00 7,3 1,7 9 5 - - NO 1017,8 26 60 0,0
18.11.2019 13:00:00 6,9 3,3 5 3 - - NO 1017,8 40 60 0,0
18.11.2019 12:00:00 4,6 3,7 4 2 - - NO 1018,4 26 30 0,0
18.11.2019 11:00:00 3,5 3,3 4 2 - - NO 1018,8 20 6 0,0
18.11.2019 10:00:00 2,4 2,4 0 0 - - N 1018,9 11 54 0,0
18.11.2019 09:00:00 0,2 0,2 4 2 - - SSE 1019,0 4,8 24 0,0
18.11.2019 08:00:00 -1,7 -1,8 4 2 - - SSO 1018,9 0,4 0 0,0
18.11.2019 07:00:00 -1,1 -1,2 0 0 - - N 1018,8 2,8 0 0,0
18.11.2019 06:00:00 -0,5 -0,6 4 2 - - NO 1018,3 3,8 0 0,0
18.11.2019 05:00:00 -0,5 -0,7 4 2 - - NNO 1018,0 5 0 0,0
18.11.2019 04:00:00 -0,3 -0,5 4 2 - - ONO 1017,7 2,4 0 0,0
18.11.2019 03:00:00 0,4 0,2 5 3 - - NO 1017,8 6 0 0,0
18.11.2019 02:00:00 1,8 1,5 4 2 - - NO 1017,7 8 0 0,0
18.11.2019 01:00:00 1,7 1,4 8 4 - - NO 1018,0 8 0 0,0
18.11.2019 00:00:00 2,0 1,4 8 4 - - NO 1017,9 9 - 0,0
17.11.2019 23:00:00 3,8 3,0 9 5 - - NNO 1017,6 11 0 0,0
17.11.2019 22:00:00 5,8 4,5 9 5 - - N 1017,4 35 0 0,0
17.11.2019 21:00:00 6,5 5,2 9 5 - - N 1017,3 35 0 0,0
17.11.2019 20:00:00 6,6 5,7 9 5 - - N 1017,0 35 0 0,0
17.11.2019 19:00:00 5,6 4,6 8 4 - - N 1016,5 25 0 0,0
17.11.2019 18:00:00 6,6 5,1 5 3 - - NNE 1016,3 50 0 0,0
17.11.2019 17:00:00 7,1 5,7 9 5 - - N 1015,7 40 0 0,0
17.11.2019 16:00:00 7,5 6,3 8 4 - - N 1014,8 28 0 0,0
17.11.2019 15:00:00 8,1 6,9 9 5 - - N 1014,1 40 0 0,0
17.11.2019 14:00:00 8,0 7,3 9 5 - - NNE 1013,6 17 0 0,0
17.11.2019 13:00:00 8,0 7,6 9 5 - - N 1013,2 16 0 1,2
17.11.2019 12:00:00 7,9 7,8 9 5 - - NNE 1013,0 35 0 0,0
17.11.2019 11:00:00 7,0 7,0 8 4 - - NNO 1012,8 11 0 1,4
17.11.2019 10:00:00 5,7 5,7 4 2 - - NNO 1012,5 2,9 0 0,8
17.11.2019 09:00:00 5,5 5,5 2 1 - - NO 1011,6 6 0 0,0
17.11.2019 08:00:00 3,6 3,5 2 1 - - N 1011,0 0,4 0 0,0
17.11.2019 07:00:00 3,9 3,8 2 1 - - NNO 1010,4 0,3 0 0,0
17.11.2019 06:00:00 4,6 4,5 4 2 - - NNO 1009,6 2,9 0 0,0
17.11.2019 05:00:00 5,3 5,1 0 0 - - N 1009,3 5 0 0,0
17.11.2019 04:00:00 5,1 4,9 0 0 - - N 1008,9 4,5 0 0,0
17.11.2019 03:00:00 5,4 5,0 2 1 - - E 1008,7 4,7 0 0,0
17.11.2019 02:00:00 6,2 5,8 4 2 - - SSE 1008,6 9 0 0,0
17.11.2019 01:00:00 6,5 6,0 0 0 - - N 1008,3 9 0 0,0
17.11.2019 00:00:00 6,8 6,2 0 0 - - N 1008,2 15 - 0,0
16.11.2019 23:00:00 6,6 5,9 4 2 - - NO 1007,8 16 0 0,0
16.11.2019 22:00:00 6,8 6,0 5 3 - - NO 1007,5 15 0 0,0
16.11.2019 21:00:00 7,0 6,3 8 4 - - ONO 1007,5 16 0 0,0
16.11.2019 20:00:00 7,2 6,2 5 3 - - NO 1007,4 20 0 0,0
16.11.2019 19:00:00 7,5 6,5 8 4 - - NO 1007,1 19 0 0,0
16.11.2019 18:00:00 7,4 6,5 9 5 - - ONO 1007,0 19 0 0,0
16.11.2019 17:00:00 8,0 6,9 8 4 - - NO 1006,6 27 0 0,0
16.11.2019 16:00:00 8,1 7,1 9 5 - - ONO 1006,6 21 0 0,0
16.11.2019 15:00:00 8,7 7,1 9 5 - - NO 1006,4 35 0 0,0
16.11.2019 14:00:00 9,4 7,3 9 5 - - ONO 1006,2 45 0 0,0
16.11.2019 13:00:00 9,6 7,5 11 6 - - ONO 1006,6 35 0 0,0
16.11.2019 12:00:00 9,3 7,0 8 4 - - NO 1006,7 35 6 0,0
16.11.2019 11:00:00 8,7 7,0 11 6 - - NO 1006,9 40 0 0,0
16.11.2019 10:00:00 7,8 6,4 11 6 - - NO 1007,1 30 24 0,0
16.11.2019 09:00:00 6,6 6,0 9 5 - - NO 1006,8 24 0 0,0
16.11.2019 08:00:00 5,5 4,8 8 4 - - NO 1007,0 23 0 0,0

tt = Temperatura
td = dewpoint
ff = velocità del vento
fx = gusts
dd = direzione del vento
ppp = reduced air pressure
vv = visibility
sd = ore di luce
rr = precipitazioni

Stazioni seguenti

WeatherPro
AMSI
MeteoEarth